Tracking 18942 objects as of 18-Jan-2018
HD Live streaming from Space Station
objects crossing your sky now

BREEZE-KM R/B

Track BREEZE-KM R/B now!
10-day predictions


NORAD ID: 42970
Int'l Code: 2017-064B
Perigee: 419.2 km
Apogee: 774.3 km
Inclination: 98.8 °
Period: 96.5 minutes
Semi major axis: 6967 km
RCS: Unknown
Launch date: October 13, 2017
Source: Commonwealth of Independent States (former USSR) (CIS)
Launch site: PLESETSK MISSILE AND SPACE COMPLEX (PKMTR)

Note: This is a ROCKET BODY
aabbcc
Your satellite tracking list
Your tracking list is empty




NASA's NSSDC Master Catalog

Two Line Element Set (TLE):
1 42970U 17064B   18017.51692898 +.00000354 +00000-0 +23669-4 0  9997
2 42970 098.7573 331.5360 0254784 358.2217 001.8066 14.92665285014321
Source of the keplerian elements: AFSPC